Location: Choisy
(48.7685°N, 2.4187°E)
Time: 23:57:38
(UTC+00:00)

Envisat - Pass Details

Date: 28 February 2024
Orbit: 762 x 764 km, 98.3° (Epoch: 12 April)

Event Time Altitude Azimuth Distance (km) Brightness Sun altitude
Rises 04:55:18 0° 3° (N) 3,243 6.4 -17.3°
Reaches altitude 10° 04:58:11 10° 346° (NNW) 2,311 5.4 -16.8°
Maximum altitude 05:01:43 19° 302° (WNW) 1,748 4.4 -16.2°
Enters shadow 05:01:47 19° 301° (WNW) 1,748 4.4 -16.2°
